Content
SEND FEEDBACK

Daily
Averages
Monthly
Summary
Canada

CORNER BROOK, NEWFOUNDLAND


Home > North America > Canada > Newfoundland
Elevation: 16 feet     Latitude: 48 57N     Longitude: 057 57W

WEATHER
 
SELECT A DAY
Number of Records: 180,860;   Date Range: 1/1/95 - 7/30/14
 
SHARE

PRINT THIS DATA

[ ← Previous Day ]
WEATHER ALMANAC - SEPTEMBER 18, 2013
[ Next Day → ]
[ °C ]   °F
Weather ElementAverageHighLow
Temperature55.9 °F64.4 °F (1:30 pm)48.2 °F (4:30 am)
Dewpoint45.6 °F49 °F (9:30 am)42.8 °F (2:30 pm)
Humidity68.8 %88 % (7:30 am)39 % (3:30 pm)
Barometer29.89 in29.99 in (1:30 am)29.82 in (2:30 pm)
Wind Speed15.4 mph29.9 mph (2:30 pm)
Wind Gust39.1 mph (2:30 pm)
Weather ElementAverage
Visibility15 mi
Wind DirectionWSW (231.5 °)

Weather ElementTotal
Precipitation---
Heating Degree Days8.7 (Base 65)
Growing Degree Days6.3 (Base 50)
Averaged from 27 records on September 18, 2013
WEATHER CONDITIONS BREAKOUT
WIND DIRECTION BREAKOUT
WEATHER BY HOUR - SEPTEMBER 18, 2013
[ °C ]   °F
Local TimeTemperatureDewpointHumidityBarometerVisibilityWind DirectionWind SpeedGust SpeedPrecipitationEventsConditions
1:30 AM50.0 °F44.6 °F82 %29.99 in15.0 miSSW (210°)15.0 mph21.9 mphScattered Clouds
2:30 AM50.0 °F44.6 °F82 %29.97 in15.0 miSSW (210°)15.0 mphPartly Cloudy
3:30 AM50.0 °F45.0 °F76 %29.95 in15.0 miSW (220°)11.5 mphScattered Clouds
3:30 AM50.0 °F44.6 °F82 %29.95 in15.0 miSW (220°)11.5 mphPartly Cloudy
4:30 AM48.2 °F44.6 °F87 %29.93 in15.0 miSSW (210°)8.1 mphPartly Cloudy
5:30 AM51.8 °F46.4 °F82 %29.92 in15.0 miSW (230°)11.5 mph18.4 mphScattered Clouds
6:30 AM50.0 °F46.4 °F87 %29.91 in15.0 miSW (220°)12.7 mphScattered Clouds
7:30 AM51.8 °F48.2 °F88 %29.91 in15.0 miSSW (210°)15.0 mphPartly Cloudy
8:30 AM53.6 °F48.2 °F82 %29.90 in15.0 miSW (220°)20.7 mphPartly Cloudy
9:30 AM58.0 °F49.0 °F62 %29.90 in15.0 miSW (230°)17.3 mphScattered Clouds
9:30 AM57.2 °F48.2 °F72 %29.90 in15.0 miSW (230°)17.3 mph27.6 mphPartly Cloudy
10:30 AM60.8 °F48.2 °F63 %29.88 in15.0 miSW (230°)20.7 mph28.8 mphScattered Clouds
11:30 AM62.6 °F44.6 °F52 %29.86 in15.0 miWSW (240°)21.9 mph29.9 mphMostly Cloudy
12:30 PM60.8 °F44.6 °F55 %29.85 in15.0 miWSW (250°)21.9 mph32.2 mphMostly Cloudy
1:30 PM64.4 °F46.4 °F52 %29.84 in15.0 miWSW (240°)15.0 mph26.5 mphMostly Cloudy
2:30 PM64.4 °F42.8 °F45 %29.82 in15.0 miWSW (240°)29.9 mph39.1 mphMostly Cloudy
3:30 PM63.0 °F44.0 °F39 %29.84 in15.0 miWSW (250°)19.6 mphScattered Clouds
3:30 PM62.6 °F44.6 °F52 %29.84 in15.0 miWSW (250°)20.7 mph29.9 mphMostly Cloudy
4:30 PM62.6 °F44.6 °F52 %29.84 in15.0 miWest (260°)15.0 mph33.4 mphMostly Cloudy
5:30 PM60.8 °F42.8 °F52 %29.86 in15.0 miWSW (250°)19.6 mph31.1 mphScattered Clouds
6:30 PM59.0 °F44.6 °F59 %29.85 in15.0 miWSW (250°)9.2 mph24.2 mphPartly Cloudy
7:30 PM55.4 °F46.4 °F72 %29.87 in15.0 miWSW (250°)15.0 mph20.7 mphPartly Cloudy
8:30 PM53.6 °F46.4 °F77 %29.88 in15.0 miSW (230°)12.7 mphPartly Cloudy
9:30 PM53.0 °F45.0 °F66 %29.90 in15.0 miSW (220°)11.5 mph
9:30 PM51.8 °F44.6 °F76 %29.89 in15.0 miSW (220°)11.5 mphClear
10:30 PM51.8 °F46.4 °F82 %29.91 in15.0 miSW (230°)9.2 mphClear
11:30 PM51.8 °F46.4 °F82 %29.92 in15.0 miSW (230°)6.9 mphClear
Hourly data recorded from CYDF, located miles away from Corner Brook, Newfoundland







STORIES FROM OUR PARTNERS